RH
34 33 46 30 39 48 58 55 57 61 65 56 52 84 85 78 76 67 39 34 32 33 21 15 9 6 6 6 6 7 7 7 8 8 8 8 8 8 8 8 8 10 14 19 25 32 42 37 36
33 32 38 27 40 38 47 48 59 60 54 52 49 58 63 59 56 46 40 24 22 19 14 7 5 6 7 8 9 10 12 13 14 15 15 16 16 15 15 15 14 14 12 12 11 10 10 11 11
32 30 27 32 36 36 34 38 62 49 44 37 33 37 34 30 46 34 26 20 16 10 6 6 7 9 10 12 15 17 18 18 19 19 18 17 16 15 15 14 13 13 13 12 13 12 12 12 13
29 30 23 28 31 33 36 36 39 23 23 23 22 29 24 27 27 21 18 14 8 6 6 8 11 13 16 18 19 19 17 16 14 13 11 10 9 9 9 8 8 8 8 8 8 8 8 8 8
34 33 28 29 28 33 24 45 25 26 28 26 25 43 16 15 16 15 11 8 8 7 10 12 14 17 18 18 16 14 11 10 9 9 9 9 8 8 8 8 8 8 8 8 8 8 7 7 7
27 27 27 24 23 30 21 20 23 30 36 24 17 21 12 13 11 9 8 8 8 11 13 15 18 20 17 14 11 9 9 10 11 11 11 11 11 10 10 9 9 9 9 9 9 9 9 9 8
25 34 27 24 25 32 26 18 19 27 36 21 16 19 9 8 7 7 7 9 11 14 16 18 20 18 14 10 10 11 13 13 13 13 13 14 13 13 13 13 12 12 11 11 11 10 10 10 9
23 28 27 26 23 26 30 16 17 22 37 25 12 33 10 7 8 8 8 11 14 16 17 19 20 15 10 10 13 14 14 15 16 16 16 16 15 14 13 13 12 12 12 12 12 11 11 10 10
18 21 23 22 23 24 29 17 15 22 26 18 13 12 7 9 9 10 12 14 16 17 19 21 18 11 10 13 15 16 17 18 18 19 18 17 17 17 16 14 13 12 11 10 10 10 10 9 9
16 17 23 23 26 27 28 14 15 19 25 16 10 9 9 9 10 12 15 16 17 19 21 21 16 10 12 15 17 18 20 22 21 20 20 20 20 19 18 16 15 14 12 12 11 10 10 10 8
14 13 21 23 17 11 14 15 18 12 13 10 11 12 9 9 10 14 16 17 18 20 22 20 14 11 14 16 18 21 23 24 24 25 25 24 22 21 19 17 15 14 13 12 11 10 9 8 7
10 9 10 13 7 9 10 11 10 11 18 12 12 10 9 10 12 15 18 19 20 21 22 21 14 11 15 17 19 22 24 26 27 28 28 26 23 22 21 18 16 14 13 12 11 9 8 7 6
5 9 6 6 6 7 8 7 8 10 16 13 14 10 10 12 14 16 18 19 21 21 22 20 14 12 14 16 19 22 25 27 28 29 30 28 26 24 22 20 17 15 14 12 10 9 8 7 6
10 7 7 7 6 7 7 8 9 10 13 13 12 11 12 14 16 18 18 19 22 21 21 21 16 12 14 16 19 21 24 25 25 29 32 32 27 26 25 22 19 16 14 13 11 10 8 6 6
8 9 11 11 10 10 9 10 11 12 13 14 13 14 15 16 18 18 20 20 22 21 20 21 18 14 14 16 18 20 22 24 24 28 34 34 30 29 29 25 19 17 15 13 12 10 7 6 5
12 15 21 21 14 13 13 14 19 13 13 13 15 16 17 17 18 20 21 21 21 22 22 22 20 16 14 16 17 19 21 23 25 29 38 37 33 33 32 25 20 18 16 14 11 8 5 4 4
20 18 22 25 20 16 16 15 20 15 14 15 16 17 17 17 18 19 19 20 21 23 25 22 22 20 16 16 17 19 23 26 28 31 42 39 37 37 33 24 21 19 16 13 9 6 5 4 4
24 26 22 22 26 22 18 17 18 17 17 18 19 18 18 17 16 18 20 22 23 24 26 24 24 23 20 18 18 22 26 31 31 36 45 42 41 40 31 24 22 19 16 12 8 6 5 5 4
25 24 23 22 28 25 21 20 20 21 20 20 20 19 17 17 19 20 21 22 23 24 25 26 26 26 25 24 25 28 33 35 35 46 50 45 44 39 28 24 22 19 15 11 8 6 6 5 5
28 28 24 24 29 29 25 26 20 21 19 17 18 19 18 19 19 19 20 22 23 25 28 29 29 28 28 29 32 37 40 39 40 55 51 47 45 35 27 24 21 17 13 9 8 7 6 6 6
25 30 28 28 32 30 29 25 21 17 17 17 17 17 19 18 18 19 20 22 25 27 30 31 32 32 32 34 38 43 46 41 54 57 49 49 44 30 26 23 20 14 10 8 7 6 6 6 6
32 29 28 33 37 35 39 35 27 24 26 18 19 19 19 21 21 22 22 23 25 29 32 34 34 35 35 38 42 47 43 49 60 54 50 49 37 28 25 21 15 11 9 8 8 8 8 8 8
38 31 34 34 45 42 40 43 28 25 24 21 18 20 21 23 24 23 22 23 27 31 33 34 33 35 35 39 46 45 46 61 58 52 53 47 30 26 24 16 11 9 8 9 9 7 5 5 6
40 35 37 37 46 55 46 37 31 26 24 25 23 15 17 22 22 20 19 22 28 30 29 29 30 36 37 44 46 46 63 62 54 56 53 35 29 25 18 11 9 9 9 7 5 5 8 12 16
40 42 46 60 70 45 35 39 36 25 25 24 17 14 14 14 15 17 17 19 23 25 26 30 33 37 41 46 45 62 62 56 57 58 44 31 27 21 12 9 9 9 6 4 8 16 24 31 33
32 43 54 58 60 38 53 52 36 23 22 23 23 23 19 20 19 19 19 21 24 25 30 34 37 39 44 45 61 63 58 58 62 53 33 29 23 14 10 10 9 6 4 11 21 28 39 50 54
52 54 44 45 45 50 40 36 29 26 24 25 25 25 26 21 21 21 22 23 25 29 34 37 40 43 46 62 66 60 58 64 60 38 30 26 16 11 10 9 7 4 10 21 26 36 45 54 63
49 47 49 52 62 46 32 30 31 26 22 21 22 22 22 21 21 22 25 28 30 33 37 42 46 50 63 68 62 58 65 64 47 32 28 18 12 10 10 8 4 8 19 25 38 45 54 59 66
52 53 48 44 40 43 41 30 32 28 27 27 27 21 21 21 22 24 28 30 32 37 44 52 58 67 71 65 59 66 68 56 33 30 20 14 10 10 8 5 6 16 23 34 40 48 59 64 65
59 51 49 44 41 50 52 47 33 28 29 31 28 27 33 30 26 28 30 33 37 44 51 60 69 75 69 60 66 71 63 36 31 24 16 11 11 9 6 5 13 22 27 38 47 53 59 66 65
Wind_Speed
5 6 8 7 3 3 5 7 13 12 10 10 10 10 10 13 13 8 4 5 9 11 13 11 11 10 10 9 10 10 10 11 12 12 13 14 15 16 17 17 18 19 19 20 22 23 22 23 23
5 5 7 6 6 7 5 10 13 11 12 10 9 9 9 14 14 13 13 10 11 12 12 11 11 10 9 9 9 9 10 10 11 12 13 13 14 14 15 16 17 17 19 20 21 22 23 24 24
6 6 9 5 6 11 8 8 10 14 12 13 11 13 13 12 15 15 12 11 11 12 12 11 10 9 9 9 10 9 10 11 12 13 14 14 15 17 17 18 19 20 20 21 22 22 23 24 24
11 10 9 9 11 11 6 7 14 14 14 13 13 11 16 16 15 12 12 12 12 13 11 10 10 9 9 9 10 10 11 12 13 14 15 16 17 18 19 20 20 21 22 22 23 24 24 25 25
11 11 12 11 13 13 14 11 14 14 15 16 14 15 15 12 13 14 13 12 12 11 11 10 9 9 10 9 10 11 12 12 14 14 16 17 18 19 20 21 22 23 23 24 24 25 25 26 27
15 12 11 14 14 14 15 17 15 14 16 15 14 17 18 14 15 13 13 12 11 12 11 10 10 9 9 10 11 11 12 13 15 16 16 17 18 19 21 22 23 24 25 26 26 27 28 28 29
16 12 15 16 14 13 15 18 17 16 15 17 17 13 17 15 13 13 13 13 13 12 12 12 11 10 10 10 9 10 12 13 14 14 15 17 18 20 22 23 24 25 26 27 28 29 29 30 31
16 15 15 15 16 17 16 19 19 20 14 21 16 13 17 16 14 14 15 15 14 14 14 13 12 11 10 9 10 11 12 13 14 15 16 17 19 20 21 22 23 24 25 26 27 29 30 32 33
16 17 19 19 17 15 20 22 20 23 24 19 18 18 18 14 15 15 16 16 16 15 15 14 13 11 10 10 11 11 13 14 15 17 18 19 21 22 23 24 25 25 26 27 28 30 32 33 34
21 23 20 18 18 17 21 19 22 20 23 21 20 19 21 18 17 17 18 18 17 16 16 16 14 12 11 11 11 12 13 15 16 18 19 21 23 25 26 26 26 27 27 28 29 31 32 32 34
24 27 17 25 25 22 21 20 23 19 24 20 19 19 21 20 20 20 20 19 19 18 18 17 15 14 13 13 12 13 14 15 17 19 20 22 25 27 28 29 28 28 28 30 31 33 34 35 36
26 25 27 27 23 22 23 22 24 22 19 21 20 24 23 22 22 22 21 21 20 19 19 18 17 17 16 15 15 16 17 18 20 22 25 27 28 30 31 32 32 33 34 35 37 37 38 38 39
26 24 26 26 24 23 25 26 25 27 22 23 24 26 24 24 24 24 24 23 21 21 21 21 20 20 19 18 18 19 19 21 24 27 29 31 33 34 35 36 36 37 38 40 40 41 41 40 41
25 24 24 24 26 26 26 25 30 26 24 26 26 25 26 26 25 26 26 24 22 23 23 23 24 23 22 22 21 22 23 25 28 31 33 35 36 37 39 39 40 40 42 43 44 44 44 43 44
26 26 27 28 25 26 24 31 34 24 26 24 24 26 28 27 29 27 25 26 27 26 26 26 27 27 26 24 24 25 26 28 31 34 36 38 40 41 42 43 43 44 44 45 45 46 46 46 45
20 22 18 17 24 29 25 31 18 20 25 28 28 29 29 28 28 28 27 29 30 29 27 28 29 29 28 27 28 28 29 31 34 36 38 40 42 44 45 44 45 46 45 46 47 46 46 46 45
23 23 19 17 23 24 25 30 18 25 25 26 26 27 27 28 30 30 30 30 30 30 30 30 30 31 30 30 31 31 32 34 35 37 40 42 44 46 47 46 47 48 47 46 47 47 47 48 47
18 22 19 21 17 21 27 32 29 28 28 26 26 27 29 29 29 30 31 31 31 31 32 32 32 32 32 32 32 33 34 35 36 39 41 43 46 48 48 48 48 49 48 47 47 48 48 49 50
23 17 21 15 23 24 29 32 31 30 32 33 34 34 34 33 31 32 33 33 34 34 34 34 33 33 32 33 33 34 35 36 37 40 42 44 47 48 48 49 49 49 49 48 48 49 49 49 50
28 26 26 21 28 28 29 36 37 36 35 33 32 34 36 36 37 37 36 35 35 34 34 35 33 33 33 33 33 33 35 36 38 41 43 45 48 48 49 50 51 50 50 49 50 51 52 52 54
32 30 24 22 24 27 30 45 38 36 34 32 35 34 38 39 40 41 39 38 36 35 33 33 33 33 34 33 32 33 34 35 39 42 44 46 47 47 48 49 50 49 48 49 51 52 53 56 55
30 23 26 22 21 14 15 13 19 18 23 27 26 28 30 37 38 40 40 41 39 35 33 33 33 33 33 32 32 32 33 37 41 43 45 47 46 47 48 49 48 48 49 51 52 54 57 59 59
22 25 25 21 19 19 23 12 19 15 23 22 22 28 28 28 32 35 35 35 36 34 33 33 34 34 32 31 32 32 34 39 41 43 46 47 47 48 50 49 48 49 51 53 55 58 59 58 58
26 24 17 14 9 11 25 25 19 23 25 20 26 22 20 23 28 28 28 30 33 35 34 32 33 31 30 31 31 32 36 39 41 44 46 47 47 49 49 49 50 51 54 57 59 59 58 56 55
29 16 6 6 7 9 15 19 31 10 21 22 16 18 17 18 22 23 25 27 31 33 29 29 28 29 30 30 30 34 37 38 41 44 45 46 48 48 48 49 51 54 57 59 58 57 57 54 53
35 27 11 8 7 10 9 11 15 21 17 27 21 24 22 22 23 22 22 24 27 27 26 27 28 29 29 29 32 35 36 38 41 43 44 45 48 48 49 50 53 56 57 55 55 55 54 52 51
21 29 26 24 17 6 12 19 24 26 28 28 28 26 23 22 21 21 21 23 25 25 25 25 27 28 28 31 33 34 36 38 40 42 43 45 45 47 48 51 54 55 53 52 53 52 52 50 49
29 22 13 12 6 14 11 21 18 12 8 9 15 15 20 20 21 22 22 23 24 25 24 24 26 28 30 32 31 33 36 38 39 40 42 43 44 46 48 51 53 51 49 49 50 50 48 47 44
38 26 18 15 18 8 11 13 12 19 20 16 17 16 14 19 23 23 23 23 24 25 22 23 27 29 30 30 30 33 35 37 38 39 41 41 43 45 48 51 49 46 46 45 45 46 45 43 41
28 28 31 19 15 13 10 13 10 15 15 10 12 15 16 19 23 25 25 24 24 24 22 25 27 28 28 28 30 32 34 35 37 38 38 40 42 45 48 48 44 42 42 42 43 43 42 40 37
Wind_Direction
244 265 172 251 240 238 217 215 222 203 200 210 203 187 205 202 193 234 273 255 248 254 268 277 281 283 288 290 293 297 297 297 295 296 295 290 290 293 293 292 289 288 288 287 285 284 286 287 287
197 249 229 249 247 248 221 232 221 208 223 226 228 216 227 227 237 250 267 261 249 257 269 275 276 278 283 290 294 298 298 298 298 298 296 295 292 291 293 293 292 291 291 290 289 288 288 288 288
234 264 242 233 223 235 245 238 191 230 233 232 231 229 241 243 240 247 255 258 260 263 262 264 272 278 283 288 293 295 294 296 295 295 296 298 301 301 299 298 298 297 295 294 293 293 293 292 292
238 233 245 232 233 242 247 227 227 237 233 230 239 244 247 246 249 251 252 254 255 255 258 262 263 272 280 287 291 295 299 302 306 309 309 310 309 307 306 303 302 301 299 296 294 292 291 292 292
214 242 241 255 248 246 262 222 248 246 243 241 238 250 248 245 243 245 247 248 248 255 261 264 269 275 282 293 300 306 313 315 313 313 312 311 308 305 300 298 296 294 293 291 291 291 289 289 289
223 229 243 249 255 249 254 253 248 244 245 245 241 241 248 247 248 249 247 250 251 260 267 267 269 280 294 300 303 309 310 313 314 314 312 311 307 302 299 295 291 289 290 288 287 287 288 287 287
224 240 246 257 254 249 259 268 261 249 239 253 243 242 253 249 250 253 253 251 259 266 267 268 278 287 287 289 298 303 306 309 309 309 309 306 305 303 300 297 293 291 288 286 286 285 286 287 287
239 242 254 254 256 261 255 268 259 245 236 240 242 237 263 256 251 252 248 253 258 260 263 270 273 272 280 287 292 300 302 302 304 305 305 309 312 311 308 306 303 300 297 295 293 291 290 290 288
256 253 253 259 264 262 255 269 264 246 241 253 245 246 258 253 247 247 251 252 254 257 262 265 264 267 271 277 287 292 298 306 305 306 309 312 315 317 316 313 309 306 304 301 297 294 291 288 288
248 251 255 264 251 255 256 263 258 250 246 251 251 251 250 252 253 251 250 251 254 257 260 260 258 258 261 271 282 294 301 302 304 308 314 317 319 319 317 314 311 307 304 300 296 292 290 289 290
254 252 260 257 258 260 259 252 252 255 256 254 255 250 250 249 251 251 251 254 255 256 258 257 253 254 259 267 279 288 295 303 311 315 315 317 319 319 318 317 314 310 306 303 302 301 300 298 298
253 259 251 254 263 258 258 258 258 260 253 260 255 253 249 250 250 250 251 254 255 256 259 256 253 254 255 264 273 283 293 303 312 318 322 322 321 321 322 321 318 316 313 311 310 308 306 303 302
256 249 259 259 261 256 254 256 258 254 245 253 250 255 252 250 251 251 252 255 259 260 260 257 254 253 256 263 272 284 294 305 313 319 322 323 323 324 324 323 320 317 314 312 311 309 307 306 304
255 254 262 262 259 259 259 259 256 256 252 254 251 253 252 252 252 251 253 257 259 260 261 258 255 256 258 263 273 283 295 306 313 316 319 322 323 323 323 322 318 316 314 314 312 311 310 310 310
258 261 265 262 261 261 257 255 259 260 257 257 254 253 252 251 251 254 256 255 256 259 261 258 257 257 257 263 273 282 292 300 308 312 317 321 321 322 322 320 317 316 316 314 314 315 313 312 311
259 262 256 271 261 256 256 259 276 262 257 253 251 252 250 251 254 252 252 254 256 259 261 257 257 257 260 264 271 281 290 296 303 310 316 318 319 320 320 318 317 316 316 317 317 316 314 314 312
252 250 248 253 261 258 253 265 258 261 261 256 253 254 250 250 252 252 254 257 260 260 260 260 259 259 262 265 272 280 288 294 300 308 313 316 318 319 319 319 319 318 319 320 319 317 315 314 311
240 245 249 239 273 257 259 262 258 261 259 258 254 256 252 251 254 255 255 256 259 261 260 261 261 261 263 267 273 280 286 293 299 306 312 315 317 318 318 319 319 320 321 321 319 317 315 312 309
254 251 250 256 246 263 266 269 267 262 264 256 254 257 257 258 256 254 254 255 258 260 262 261 262 263 265 270 274 281 288 294 299 306 311 314 316 317 318 319 321 322 321 321 319 315 311 307 303
241 251 253 260 264 271 272 270 273 269 264 265 262 260 262 260 257 258 258 259 261 263 262 260 263 265 267 271 276 283 289 293 299 306 310 312 316 318 320 322 322 322 321 321 317 314 310 306 303
242 241 251 255 265 274 285 281 278 274 270 261 261 261 257 259 259 260 259 260 261 261 262 262 263 266 267 272 278 283 287 292 299 304 309 312 315 318 320 321 321 321 319 318 315 312 307 304 303
242 250 252 250 254 264 269 285 269 261 265 269 263 256 257 258 261 260 260 256 256 258 259 258 261 267 268 272 278 283 286 294 300 304 308 311 315 318 320 321 321 320 319 317 314 311 307 304 302
246 241 249 253 249 266 257 264 278 259 249 261 273 263 257 254 257 257 259 254 253 253 254 256 260 267 271 274 279 283 289 295 300 303 307 312 317 321 321 321 320 321 320 318 314 310 307 306 304
238 235 244 250 245 251 246 234 262 251 264 263 252 273 259 249 250 249 251 247 243 245 249 254 262 270 272 274 279 283 291 296 300 304 309 315 319 321 321 321 322 322 320 317 314 312 312 310 306
226 213 214 227 211 252 240 227 237 240 251 254 240 251 257 260 248 249 252 245 242 246 250 257 267 268 269 274 279 287 291 295 300 306 312 317 320 320 321 322 322 322 320 318 317 316 315 311 307
227 203 194 228 217 238 219 230 251 270 255 255 254 250 253 263 257 250 247 245 246 246 249 256 262 268 271 275 284 287 290 296 303 309 314 318 319 320 321 323 323 322 321 321 321 320 318 314 312
211 214 225 257 270 274 232 258 266 264 257 257 258 255 261 257 252 243 245 246 245 244 249 256 264 268 270 280 284 287 293 299 305 311 316 317 319 320 322 323 322 322 323 325 324 324 321 317 314
210 216 200 210 231 249 243 250 245 256 246 264 240 248 250 254 246 246 246 245 246 245 248 259 267 269 276 280 282 288 295 302 309 313 315 317 319 321 322 322 322 325 327 328 328 327 324 320 317
208 205 205 221 222 246 259 245 240 255 265 257 248 235 235 251 248 249 247 243 242 244 250 271 269 273 276 277 282 290 298 305 310 313 316 317 320 322 322 322 324 327 328 330 330 330 328 324 321
224 221 215 224 211 228 255 250 256 244 269 253 250 240 253 251 250 251 245 240 241 240 263 273 273 274 275 276 285 295 302 307 310 313 316 318 321 321 322 323 325 327 329 330 331 331 334 329 325